Location: Stockholm
(59.3333°N, 18.0500°E)
Time: 06:31:16
(UTC+01:00)

ISS - Visible Passes

Search period start: 02 December 2023 00:00
Search period end: 12 December 2023 00:00
Orbit: 416 x 417 km, 51.6° (Epoch: 01 December)

Date Brightness Start Highest point End Pass type
(mag) Time Alt. Az. Time Alt. Az. Time Alt. Az.
02 Dec -1.3 15:53:41 10° WSW 15:56:18 21° S 15:58:55 10° SE visible
02 Dec -0.8 17:30:48 10° SW 17:32:12 12° SSW 17:33:36 10° S visible
03 Dec -0.9 16:42:00 10° WSW 16:44:00 15° SSW 16:45:58 10° SSE visible
04 Dec -0.9 15:53:23 10° WSW 15:55:43 18° SSW 15:58:02 10° SSE visible
06 Dec -0.5 15:53:25 10° SW 15:54:56 13° SSW 15:56:26 10° S visible
